Tracking 31027 objects as of 19-Jul-2025
HD Live streaming from Space Station
objects crossing your sky now

DELTA 4 R/B

Track DELTA 4 R/B now!


NORAD ID: 35492
Int'l Code: 2009-033B
Perigee: 6,772.8 km
Apogee: 34,954.4 km
Inclination: 12.8 °
Period: 745.5 minutes
Semi major axis: 27234 km
RCS: 39.3633 m2 (large)
Launch date: June 27, 2009
Source: United States (US)
Launch site: AIR FORCE EASTERN TEST RANGE (AFETR)

Note: This is a ROCKET BODY
Your satellite tracking list
CZ-4C DEB
Track 1 satellite(s)




NASA's NSSDC Master Catalog

Two Line Element Set (TLE):
1 35492U 09033B   25199.54083905 -.00000153  00000-0  00000-0 0  9998
2 35492  12.7748 121.5282 5173859  54.2625  77.2244  1.93162189113312
Source of the keplerian elements: AFSPC